Location: Владивосток
(43.1151°N, 131.8856°E)
Time: 07:55:58
(UTC+10:00)

EO-88 - Pass Details

Date: 07 July 2022
Orbit: 453 x 461 km, 97.3° (Epoch: 13 August)

Event Time Altitude Azimuth Distance (km) Brightness Sun altitude
Exits shadow 22:28:31 25° 151° (SSE) 984 ? -13.7°
Maximum altitude 22:30:24 65° 76° (ENE) 519 ? -13.9°
Drops below altitude 10° 22:33:51 10° 354° (N) 1,628 ? -14.3°
Sets 22:35:55 0° 351° (N) 2,507 ? -14.6°
